Location: Finkenwalde
(53.3770°N, 14.6418°E)
Time: 05:20:10
(UTC+00:00)

SPOT 1/Viking Rocket - Pass Details

Date: 05 February 2023
Orbit: 777 x 792 km, 98.3° (Epoch: 24 March)

Event Time Altitude Azimuth Distance (km) Brightness Sun altitude
Exits shadow 19:00:44 48° 358° (N) 1,015 4.1 -28.3°
Drops below altitude 10° 19:04:28 10° 347° (NNW) 2,342 6.3 -28.8°
Sets 19:06:47 0° 346° (NNW) 3,274 7.1 -29.1°
